2024-172E

Last updated on Fri Oct 04 2024 00:02:04 GMT+0000 (Coordinated Universal Time)

1 61224U 24172E 24277.51669997 .00014597 00000+0 20445-2 0 9997 2 61224 98.0183 3.9251 0001979 226.9972 133.1072 14.77623117 1848
UTC large
Height (km)
Speed (km/s)
/
Latitude / Longitude
Inclination (degrees)
Orbital Period (minutes)
Azimuth
Elevation
Range (km)
Doppler Factor

Next 0 passes for location: London (51.5072 / 0.1276)

Sorry there are no passes over London.